Home   Weather   Traralgon   Past weeks

Flag for Australia Past Weather in Traralgon, Victoria, Australia — Yesterday and Last 2 Weeks

Now
49 °F

Passing clouds.


Feels Like: 49 °F
Forecast: 44 / 67 °F
Wind: 3 mph from East

Location: Latrobe Valley Airport

Current Time: Apr 30, 2017 at 7:48:40 am

Latest Report: Apr 30, 2017 at 6:00 am


Visibility: N/A

Pressure: 30.20 "Hg

Humidity: 93%

Dew Point: 47 °F

Location of TraralgonLocation

Past Weather in Traralgon — Graph

°F

Traralgon Temperature Yesterday

Maximum temperature yesterday: 64 °F (at 3:00 pm)
Minimum temperature yesterday: 56 °F (at 11:00 pm)
Average temperature yesterday: 59 °F

High & Low Weather Summary for the Past Weeks

 TemperatureHumidityPressure
High82 °F (Apr 20, 2:00 pm)97% (Apr 25, 9:00 am)30.39 "Hg (Apr 25, 9:00 am)
Low41 °F (Apr 27, 6:00 am)26% (Apr 20, 3:00 pm)29.61 "Hg (Apr 26, 3:00 am)
Average58 °F80%30.14 "Hg
* Reported Apr 15 6:00 am — Apr 30 6:00 am, Traralgon, Weather by CustomWeather, © 2017

Note: Actual official high and low records may vary slightly from our data, if they occured in-between our weather recording intervals... More about our weather records

Advertising

Traralgon Weather History for the Previous 24 Hours

Scroll right to see more
 ConditionsComfort  
Time TempWeatherWind HumidityBarometerVisibility
6:00 am
Sun, Apr 30
49 °FPassing clouds.3 mph93%30.20 "HgN/A
5:00 am50 °FCool.2 mph91%30.20 "HgN/A
3:00 am55 °FOvercast.2 mph90%30.20 "HgN/A
2:00 am55 °FCool.5 mph89%30.21 "HgN/A
12:00 am56 °FOvercast.8 mph87%30.22 "HgN/A
11:00 pm
Sat, Apr 29
56 °FCool.8 mph87%30.22 "HgN/A
9:00 pm56 °FOvercast.8 mph84%30.22 "HgN/A
8:00 pm56 °FCool.8 mph83%30.21 "HgN/A
6:00 pm57 °FOvercast.10 mph81%30.18 "HgN/A
5:00 pm59 °FCool.14 mph78%30.16 "HgN/A
3:00 pm64 °FPartly sunny.17 mph71%30.14 "HgN/A
2:00 pm63 °FMild.18 mph74%30.13 "HgN/A
12:00 pm60 °FLow clouds.16 mph91%30.15 "Hg2 mi
11:00 am63 °FMild.18 mph81%30.15 "HgN/A
9:00 am58 °FOvercast.15 mph91%30.15 "Hg3 mi
8:00 am58 °FCool.16 mph88%30.13 "HgN/A
Weather by CustomWeather, © 2017

See weather overviewHow to use our weather pages